Year,Month,Day,Hour,Minute,Value (Times are PST for temperature in C)
2017,07,08,10,40,15.30
2017,07,08,10,41,15.30
2017,07,08,10,42,15.30
2017,07,08,10,43,15.40
2017,07,08,10,44,15.40
2017,07,08,10,45,15.40
2017,07,08,10,46,15.50
2017,07,08,10,47,15.50
2017,07,08,10,48,15.60
2017,07,08,10,49,15.60
2017,07,08,10,50,15.60
2017,07,08,10,51,15.60
2017,07,08,10,52,15.60
2017,07,08,10,53,15.60
2017,07,08,10,54,15.60
2017,07,08,10,55,15.60
2017,07,08,10,56,15.60
2017,07,08,10,57,15.60
2017,07,08,10,58,15.50
2017,07,08,10,59,15.50
2017,07,08,11,00,15.50
2017,07,08,11,01,15.40
2017,07,08,11,02,15.40
2017,07,08,11,03,15.50
2017,07,08,11,04,15.50
2017,07,08,11,05,15.50
2017,07,08,11,06,15.60
2017,07,08,11,07,15.60
2017,07,08,11,08,15.60
2017,07,08,11,09,15.60
2017,07,08,11,10,15.60
2017,07,08,11,11,15.70
2017,07,08,11,12,15.70
2017,07,08,11,13,15.70
2017,07,08,11,14,15.80
2017,07,08,11,15,15.80
2017,07,08,11,16,15.80
2017,07,08,11,17,15.80
2017,07,08,11,18,15.70
2017,07,08,11,19,15.70
2017,07,08,11,20,15.70
2017,07,08,11,21,15.70
2017,07,08,11,22,15.80
2017,07,08,11,23,15.80
2017,07,08,11,24,15.90
2017,07,08,11,25,16.00
2017,07,08,11,26,16.10
2017,07,08,11,27,16.20
2017,07,08,11,28,16.20
2017,07,08,11,29,16.20
2017,07,08,11,30,16.20
2017,07,08,11,31,16.30
2017,07,08,11,32,16.30
2017,07,08,11,33,16.30
2017,07,08,11,34,16.30
2017,07,08,11,35,16.30
2017,07,08,11,36,16.20
2017,07,08,11,37,16.20
2017,07,08,11,38,16.20
2017,07,08,11,39,16.20
2017,07,08,11,40,16.20
2017,07,08,11,41,16.20
2017,07,08,11,42,16.20
2017,07,08,11,43,16.10
2017,07,08,11,44,16.10
2017,07,08,11,45,15.90
2017,07,08,11,46,15.90
2017,07,08,11,47,15.80
2017,07,08,11,48,15.80
2017,07,08,11,49,15.80
2017,07,08,11,50,15.90
2017,07,08,11,51,16.00
2017,07,08,11,52,16.10
2017,07,08,11,53,16.20
2017,07,08,11,54,16.30
2017,07,08,11,55,16.40
2017,07,08,11,56,16.50
2017,07,08,11,57,16.60
2017,07,08,11,58,16.60
2017,07,08,11,59,16.70
2017,07,08,12,00,16.70
2017,07,08,12,01,16.60
2017,07,08,12,02,16.60
2017,07,08,12,03,16.50
2017,07,08,12,04,16.40
2017,07,08,12,05,16.20
2017,07,08,12,06,16.10
2017,07,08,12,07,16.00
2017,07,08,12,08,15.80
2017,07,08,12,09,15.70
2017,07,08,12,10,15.60
2017,07,08,12,11,15.50
2017,07,08,12,12,15.40
2017,07,08,12,13,15.30
2017,07,08,12,14,15.20
2017,07,08,12,15,15.20
2017,07,08,12,16,15.10
2017,07,08,12,17,15.10
2017,07,08,12,18,15.00
2017,07,08,12,19,15.00
2017,07,08,12,20,14.90
2017,07,08,12,21,14.90
2017,07,08,12,22,14.80
2017,07,08,12,23,14.70
2017,07,08,12,24,14.60
2017,07,08,12,25,14.50
2017,07,08,12,26,14.50
2017,07,08,12,27,14.40
2017,07,08,12,28,14.40
2017,07,08,12,29,14.40
2017,07,08,12,30,14.40
2017,07,08,12,31,14.30
2017,07,08,12,32,14.30
2017,07,08,12,33,14.30
2017,07,08,12,34,14.30
2017,07,08,12,35,14.30
2017,07,08,12,36,14.30
2017,07,08,12,37,14.40
2017,07,08,12,38,14.40
2017,07,08,12,39,14.40
2017,07,08,12,40,14.40
2017,07,08,12,41,14.40
2017,07,08,12,42,14.30
2017,07,08,12,43,14.30
2017,07,08,12,44,14.20
2017,07,08,12,45,14.20
2017,07,08,12,46,14.10
2017,07,08,12,47,14.10
2017,07,08,12,48,14.10
2017,07,08,12,49,14.20
2017,07,08,12,50,14.20
2017,07,08,12,51,14.20
2017,07,08,12,52,14.20
2017,07,08,12,53,14.20
2017,07,08,12,54,14.20
2017,07,08,12,55,14.30
2017,07,08,12,56,14.40
2017,07,08,12,57,14.50
2017,07,08,12,58,14.60
2017,07,08,12,59,14.70
2017,07,08,13,00,14.80
2017,07,08,13,01,14.90
2017,07,08,13,02,15.00
2017,07,08,13,03,15.10
2017,07,08,13,04,15.20
2017,07,08,13,05,15.20
2017,07,08,13,06,15.30
2017,07,08,13,07,15.30
2017,07,08,13,08,15.30
2017,07,08,13,09,15.20
2017,07,08,13,10,15.10
2017,07,08,13,11,15.00
2017,07,08,13,12,14.90
2017,07,08,13,13,14.80
2017,07,08,13,14,14.70
2017,07,08,13,15,14.60
2017,07,08,13,16,14.60
2017,07,08,13,17,14.50
2017,07,08,13,18,14.50
2017,07,08,13,19,14.50
2017,07,08,13,20,14.50
2017,07,08,13,21,14.40
2017,07,08,13,22,14.40
2017,07,08,13,23,14.30
2017,07,08,13,24,14.30
2017,07,08,13,25,14.30
2017,07,08,13,26,14.40
2017,07,08,13,27,14.40
2017,07,08,13,28,14.40
2017,07,08,13,29,14.40
2017,07,08,13,30,14.40
2017,07,08,13,31,14.40
2017,07,08,13,32,14.40
2017,07,08,13,33,14.40
2017,07,08,13,34,14.50
2017,07,08,13,35,14.60
2017,07,08,13,36,14.70
2017,07,08,13,37,14.60
2017,07,08,13,38,14.60
2017,07,08,13,39,14.50
2017,07,08,13,40,14.50
2017,07,08,13,41,14.50
2017,07,08,13,42,14.40
2017,07,08,13,43,14.40
2017,07,08,13,44,14.40
2017,07,08,13,45,14.40
2017,07,08,13,46,14.40
2017,07,08,13,47,14.40
2017,07,08,13,48,14.30
2017,07,08,13,49,14.40
2017,07,08,13,50,14.30
2017,07,08,13,51,14.30
2017,07,08,13,52,14.30
2017,07,08,13,53,14.30
2017,07,08,13,54,14.20
2017,07,08,13,55,14.20
2017,07,08,13,56,14.20
2017,07,08,13,57,14.20
2017,07,08,13,58,14.20
2017,07,08,13,59,14.10
2017,07,08,14,00,14.10
2017,07,08,14,01,14.10
2017,07,08,14,02,14.10
2017,07,08,14,03,14.10
2017,07,08,14,04,14.20
2017,07,08,14,05,14.20
2017,07,08,14,06,14.20
2017,07,08,14,07,14.20
2017,07,08,14,08,14.20
2017,07,08,14,09,14.20
2017,07,08,14,10,14.20
2017,07,08,14,11,14.20
2017,07,08,14,12,14.30
2017,07,08,14,13,14.30
2017,07,08,14,14,14.30
2017,07,08,14,15,14.30
2017,07,08,14,16,14.40
2017,07,08,14,17,14.40
2017,07,08,14,18,14.50
2017,07,08,14,19,14.60
2017,07,08,14,20,14.60
2017,07,08,14,21,14.70
2017,07,08,14,22,14.70
2017,07,08,14,23,14.80
2017,07,08,14,24,14.80
2017,07,08,14,25,14.80
2017,07,08,14,26,14.80
2017,07,08,14,27,14.80
2017,07,08,14,28,14.80
2017,07,08,14,29,14.80
2017,07,08,14,30,14.90
2017,07,08,14,31,15.00
2017,07,08,14,32,15.00
2017,07,08,14,33,15.10
2017,07,08,14,34,15.20
2017,07,08,14,35,15.30
2017,07,08,14,36,15.30
2017,07,08,14,37,15.40
2017,07,08,14,38,15.40
2017,07,08,14,39,15.50
2017,07,08,14,40,15.60
2017,07,08,14,41,15.60
2017,07,08,14,42,15.60
2017,07,08,14,43,15.80
2017,07,08,14,44,15.80
2017,07,08,14,45,15.90
2017,07,08,14,46,16.00
2017,07,08,14,47,16.10
2017,07,08,14,48,16.30
2017,07,08,14,49,16.30
2017,07,08,14,50,16.30
2017,07,08,14,51,16.30
2017,07,08,14,52,16.30
2017,07,08,14,53,16.20
2017,07,08,14,54,16.20
2017,07,08,14,55,16.20
2017,07,08,14,56,16.20
2017,07,08,14,57,16.20
2017,07,08,14,58,16.20
2017,07,08,14,59,16.20
2017,07,08,15,00,16.20
2017,07,08,15,01,16.30
2017,07,08,15,02,16.30
2017,07,08,15,03,16.40
2017,07,08,15,04,16.40
2017,07,08,15,05,16.50
2017,07,08,15,06,16.50
2017,07,08,15,07,16.40
2017,07,08,15,08,16.40
2017,07,08,15,09,16.40
2017,07,08,15,10,16.40
2017,07,08,15,11,16.40
2017,07,08,15,12,16.40
2017,07,08,15,13,16.40
2017,07,08,15,14,16.40
2017,07,08,15,15,16.40
2017,07,08,15,16,16.40
2017,07,08,15,17,16.40
2017,07,08,15,18,16.40
2017,07,08,15,19,16.40
2017,07,08,15,20,16.40
2017,07,08,15,21,16.40
2017,07,08,15,22,16.30
2017,07,08,15,23,16.10
2017,07,08,15,24,16.10
2017,07,08,15,25,16.00
2017,07,08,15,26,15.90
2017,07,08,15,27,15.90
2017,07,08,15,28,15.90
2017,07,08,15,29,15.90
2017,07,08,15,30,15.90
2017,07,08,15,31,15.90
2017,07,08,15,32,15.90
2017,07,08,15,33,15.90
2017,07,08,15,34,15.90
2017,07,08,15,35,15.80
2017,07,08,15,36,15.80
2017,07,08,15,37,15.80
2017,07,08,15,38,15.70
2017,07,08,15,39,15.70
2017,07,08,15,40,15.70
2017,07,08,15,41,15.80
2017,07,08,15,42,16.00
2017,07,08,15,43,16.10
2017,07,08,15,44,16.10
2017,07,08,15,45,16.20
2017,07,08,15,46,16.20
2017,07,08,15,47,16.30
2017,07,08,15,48,16.30
2017,07,08,15,49,16.40
2017,07,08,15,50,16.40
2017,07,08,15,51,16.50
2017,07,08,15,52,16.40
2017,07,08,15,53,16.40
2017,07,08,15,54,16.40
2017,07,08,15,55,16.30
2017,07,08,15,56,16.30
2017,07,08,15,57,16.30
2017,07,08,15,58,16.40
2017,07,08,15,59,16.50
2017,07,08,16,00,16.60
2017,07,08,16,01,16.70
2017,07,08,16,02,16.70
2017,07,08,16,03,16.70
2017,07,08,16,04,16.70
2017,07,08,16,05,16.70
2017,07,08,16,06,16.70
2017,07,08,16,07,16.60
2017,07,08,16,08,16.50
2017,07,08,16,09,16.40
2017,07,08,16,10,16.40
2017,07,08,16,11,16.40
2017,07,08,16,12,16.40
2017,07,08,16,13,16.30
2017,07,08,16,14,16.30
2017,07,08,16,15,16.30
2017,07,08,16,16,16.30
2017,07,08,16,17,16.30
2017,07,08,16,18,16.30
2017,07,08,16,19,16.30
2017,07,08,16,20,16.40
2017,07,08,16,21,16.40
2017,07,08,16,22,16.50
2017,07,08,16,23,16.60
2017,07,08,16,24,16.60
2017,07,08,16,25,16.60
2017,07,08,16,26,16.60
2017,07,08,16,27,16.50
2017,07,08,16,28,16.50
2017,07,08,16,29,16.40
2017,07,08,16,30,16.30
2017,07,08,16,31,16.40
2017,07,08,16,32,16.40
2017,07,08,16,33,16.40
2017,07,08,16,34,16.40
2017,07,08,16,35,16.40
2017,07,08,16,36,16.40
2017,07,08,16,37,16.50
2017,07,08,16,38,16.40
2017,07,08,16,39,16.50
2017,07,08,16,40,16.50
2017,07,08,16,41,16.60
2017,07,08,16,42,16.60
2017,07,08,16,43,16.70
2017,07,08,16,44,16.70
2017,07,08,16,45,16.70
2017,07,08,16,46,16.70
2017,07,08,16,47,16.80
2017,07,08,16,48,16.90
2017,07,08,16,49,16.90
2017,07,08,16,50,16.90
2017,07,08,16,51,16.90
2017,07,08,16,52,16.90
2017,07,08,16,53,17.00
2017,07,08,16,54,17.00
2017,07,08,16,55,17.10
2017,07,08,16,56,17.10
2017,07,08,16,57,17.00
2017,07,08,16,58,17.00
2017,07,08,16,59,16.90
2017,07,08,17,00,16.90
2017,07,08,17,01,16.80
2017,07,08,17,02,16.80
2017,07,08,17,03,16.80
2017,07,08,17,04,16.80
2017,07,08,17,05,16.80
2017,07,08,17,06,16.80
2017,07,08,17,07,16.80
2017,07,08,17,08,16.80
2017,07,08,17,09,16.80
2017,07,08,17,10,16.80
2017,07,08,17,11,16.90
2017,07,08,17,12,16.90
2017,07,08,17,13,17.00
2017,07,08,17,14,17.00
2017,07,08,17,15,17.00
2017,07,08,17,16,16.90
2017,07,08,17,17,16.90
2017,07,08,17,18,16.90
2017,07,08,17,19,16.80
2017,07,08,17,20,16.80
2017,07,08,17,21,16.70
2017,07,08,17,22,16.60
2017,07,08,17,23,16.60
2017,07,08,17,24,16.50
2017,07,08,17,25,16.50
2017,07,08,17,26,16.40
2017,07,08,17,27,16.40
2017,07,08,17,28,16.40
2017,07,08,17,29,16.40
2017,07,08,17,30,16.30
2017,07,08,17,31,16.30
2017,07,08,17,32,16.40
2017,07,08,17,33,16.40
2017,07,08,17,34,16.40
2017,07,08,17,35,16.50
2017,07,08,17,36,16.50
2017,07,08,17,37,16.60
2017,07,08,17,38,16.70
2017,07,08,17,39,16.70
2017,07,08,17,40,16.80
2017,07,08,17,41,16.80
2017,07,08,17,42,16.90
2017,07,08,17,43,16.90
2017,07,08,17,44,17.10
2017,07,08,17,45,17.20
2017,07,08,17,46,17.30
2017,07,08,17,47,17.30
2017,07,08,17,48,17.40
2017,07,08,17,49,17.40
2017,07,08,17,50,17.40
2017,07,08,17,51,17.50
2017,07,08,17,52,17.50
2017,07,08,17,53,17.50
2017,07,08,17,54,17.50
2017,07,08,17,55,17.60
2017,07,08,17,56,17.60
2017,07,08,17,57,17.60
2017,07,08,17,58,17.50
2017,07,08,17,59,17.40
2017,07,08,18,00,17.40
2017,07,08,18,01,17.30
2017,07,08,18,02,17.20
2017,07,08,18,03,17.10
2017,07,08,18,04,17.00
2017,07,08,18,05,17.00
2017,07,08,18,06,16.90
2017,07,08,18,07,16.80
2017,07,08,18,08,16.80
2017,07,08,18,09,16.80
2017,07,08,18,10,16.80
2017,07,08,18,11,16.80
2017,07,08,18,12,16.70
2017,07,08,18,13,16.70
2017,07,08,18,14,16.60
2017,07,08,18,15,16.60
2017,07,08,18,16,16.60
2017,07,08,18,17,16.60
2017,07,08,18,18,16.50
2017,07,08,18,19,16.50
2017,07,08,18,20,16.40
2017,07,08,18,21,16.40
2017,07,08,18,22,16.40
2017,07,08,18,23,16.30
2017,07,08,18,24,16.30
2017,07,08,18,25,16.30
2017,07,08,18,26,16.30
2017,07,08,18,27,16.20
2017,07,08,18,28,16.20
2017,07,08,18,29,16.20
2017,07,08,18,30,16.20
2017,07,08,18,31,16.20
2017,07,08,18,32,16.20
2017,07,08,18,33,16.20
2017,07,08,18,34,16.20
2017,07,08,18,35,16.20
2017,07,08,18,36,16.10
2017,07,08,18,37,16.10
2017,07,08,18,38,16.10
2017,07,08,18,39,16.10
2017,07,08,18,40,16.00
2017,07,08,18,41,16.00
2017,07,08,18,42,16.00
2017,07,08,18,43,16.00
2017,07,08,18,44,16.00
2017,07,08,18,45,16.00
2017,07,08,18,46,16.00
2017,07,08,18,47,16.10
2017,07,08,18,48,16.10
2017,07,08,18,49,16.10
2017,07,08,18,50,16.10
2017,07,08,18,51,16.20
2017,07,08,18,52,16.20
2017,07,08,18,53,16.20
2017,07,08,18,54,16.20
2017,07,08,18,55,16.30
2017,07,08,18,56,16.30
2017,07,08,18,57,16.30
2017,07,08,18,58,16.40
2017,07,08,18,59,16.40
2017,07,08,19,00,16.50
2017,07,08,19,01,16.50
2017,07,08,19,02,16.60
2017,07,08,19,03,16.60
2017,07,08,19,04,16.60
2017,07,08,19,05,16.60
2017,07,08,19,06,16.70
2017,07,08,19,07,16.70
2017,07,08,19,08,16.70
2017,07,08,19,09,16.80
2017,07,08,19,10,16.80
2017,07,08,19,11,16.80
2017,07,08,19,12,16.80
2017,07,08,19,13,16.80
2017,07,08,19,14,16.80
2017,07,08,19,15,16.80
2017,07,08,19,16,16.80
2017,07,08,19,17,16.80
2017,07,08,19,18,16.80
2017,07,08,19,19,16.80
2017,07,08,19,20,16.80
2017,07,08,19,21,16.80
2017,07,08,19,22,16.80
2017,07,08,19,23,16.80
2017,07,08,19,24,16.80
2017,07,08,19,25,16.80
2017,07,08,19,26,16.70
2017,07,08,19,27,16.70
2017,07,08,19,28,16.70
2017,07,08,19,29,16.60
2017,07,08,19,30,16.60
2017,07,08,19,31,16.50
2017,07,08,19,32,16.50
2017,07,08,19,33,16.40
2017,07,08,19,34,16.40
2017,07,08,19,35,16.30
2017,07,08,19,36,16.30
2017,07,08,19,37,16.30
2017,07,08,19,38,16.30
2017,07,08,19,39,16.40
2017,07,08,19,40,16.40
2017,07,08,19,41,16.40
2017,07,08,19,42,16.40
2017,07,08,19,43,16.40
2017,07,08,19,44,16.30
2017,07,08,19,45,16.30
2017,07,08,19,46,16.30
2017,07,08,19,47,16.30
2017,07,08,19,48,16.30
2017,07,08,19,49,16.30
2017,07,08,19,50,16.30
2017,07,08,19,51,16.30
2017,07,08,19,52,16.30
2017,07,08,19,53,16.40
2017,07,08,19,54,16.40
2017,07,08,19,55,16.50
2017,07,08,19,56,16.60
2017,07,08,19,57,16.60
2017,07,08,19,58,16.60
2017,07,08,19,59,16.50
2017,07,08,20,00,16.50
2017,07,08,20,01,16.40
2017,07,08,20,02,16.40
2017,07,08,20,03,16.30
2017,07,08,20,04,16.30
2017,07,08,20,05,16.20
2017,07,08,20,06,16.10
2017,07,08,20,07,16.00
2017,07,08,20,08,15.90
2017,07,08,20,09,15.80
2017,07,08,20,10,15.70
2017,07,08,20,11,15.50
2017,07,08,20,12,15.40
2017,07,08,20,13,15.30
2017,07,08,20,14,15.30
2017,07,08,20,15,15.20
2017,07,08,20,16,15.10
2017,07,08,20,17,15.10
2017,07,08,20,18,15.10
2017,07,08,20,19,15.00
2017,07,08,20,20,15.00
2017,07,08,20,21,14.90
2017,07,08,20,22,14.90
2017,07,08,20,23,14.90
2017,07,08,20,24,14.90
2017,07,08,20,25,14.90
2017,07,08,20,26,14.80
2017,07,08,20,27,14.80
2017,07,08,20,28,14.80
2017,07,08,20,29,14.80
2017,07,08,20,30,14.70
2017,07,08,20,31,14.70
2017,07,08,20,32,14.70
2017,07,08,20,33,14.70
2017,07,08,20,34,14.70
2017,07,08,20,35,14.70
2017,07,08,20,36,14.70
2017,07,08,20,37,14.70
2017,07,08,20,38,14.80
2017,07,08,20,39,14.80
2017,07,08,20,40,14.80
2017,07,08,20,41,14.80
2017,07,08,20,42,14.80
2017,07,08,20,43,14.80
2017,07,08,20,44,14.80
2017,07,08,20,45,14.80
2017,07,08,20,46,14.80
2017,07,08,20,47,14.80
2017,07,08,20,48,14.80
2017,07,08,20,49,14.80
2017,07,08,20,50,14.80
2017,07,08,20,51,14.80
2017,07,08,20,52,14.80
2017,07,08,20,53,14.80
2017,07,08,20,54,14.90
2017,07,08,20,55,14.90
2017,07,08,20,56,14.90
2017,07,08,20,57,14.90
2017,07,08,20,58,14.90
2017,07,08,20,59,14.90
2017,07,08,21,00,14.90
2017,07,08,21,01,14.90
2017,07,08,21,02,14.90
2017,07,08,21,03,14.90
2017,07,08,21,04,14.90
2017,07,08,21,05,14.90
2017,07,08,21,06,14.90
2017,07,08,21,07,14.90
2017,07,08,21,08,14.90
2017,07,08,21,09,14.90
2017,07,08,21,10,14.90
2017,07,08,21,11,14.90
2017,07,08,21,12,14.90
2017,07,08,21,13,14.90
2017,07,08,21,14,14.90
2017,07,08,21,15,14.90
